Regional Weather Roundup
Issued by NWS

Home | Current Version | Previous Version | Text Only | Print | Product List | Glossary On
Versions: 1 2 3 4 5 6 7 8 9 10 11 12 13 14 15 16 17 18 19 20 21 22 23 24 25 26 27 28 29 30 31 32 33 34 35 36 37 38 39 40 41 42 43 44 45 46 47 48 49 50
000
ASHW40 PHFO 220343
RWRHI

WEATHER ROUNDUP FOR HAWAII
NATIONAL WEATHER SERVICE HONOLULU HI
500 PM HST MON AUG 21 2017

THIS IS AN AUTOMATED REPORT THAT HAS NOT BEEN QUALITY CONTROLLED.

NOTE..."FAIR" INDICATES FEW OR NO CLOUDS BELOW 12,000 FEET WITH NO
SIGNIFICANT WEATHER AND/OR OBSTRUCTIONS TO VISIBILITY.

* - THESE SITES REPORT LIMITED FIELDS
# - BUOY DATA PROVIDED BY PACIFIC ISLANDS OCEAN OBSERVING SYSTEM.

HIZ001>004-220400-
KAUAI-NIIHAU-

CITY           SKY/WX    TMP DP  RH WIND       PRES   REMARKS
LIHUE APT      CLOUDY    77  69  76 N14       29.99F
PORT ALLEN*      N/A     84 N/A N/A NE13G22     N/A
POIPU*           N/A     72 N/A N/A NE10G23     N/A
PRINCEVILLE*     N/A     70 N/A N/A S3          N/A
KOKOLE POINT*  NOT AVBL
MOLOAA DAIRY*    N/A     72  68  88 W3          N/A
WAIMEA HTS*      N/A     82  68  61 E6G17       N/A
PUU OPAE*        N/A     75  61  60 SE7G22      N/A
PUU LUA*       NOT AVBL
MAKAHA RIDGE*    N/A     81  66  61 SW3G15      N/A
$$

HIZ005>011-220400-
OAHU-

CITY           SKY/WX    TMP DP  RH WIND       PRES   REMARKS
HONOLULU       MOSUNNY   81  70  69 E17       29.96R
KALAELOA       SUNNY     88  69  53 NE10G17   29.96S HX  92
KANEOHE MCB    MOSUNNY   84  75  74 E9        29.95  HX  92
WHEELER FIELD  PTSUNNY   83  71  66 NE10      29.97F
BELLOWS*         N/A    N/A N/A N/A NE15        N/A
KAHUKU*          N/A    N/A N/A N/A NE7G14      N/A
WHEELER*         N/A    N/A N/A N/A NE9G15      N/A
WAIANAE HARBOR   N/A    N/A N/A N/A SW3         N/A
DILLINGHAM*      N/A     84  73  70 SW6G13      N/A  HX  91
KAHUKU TRN*      N/A     81  73  78 W7G17       N/A
KAWAILOA*        N/A     77  72  83 NE9G18      N/A
KII*             N/A     82  75  78 NE12G17     N/A
MAKUA RANGE*     N/A    N/A N/A N/A SW12G21     N/A
OAHU FOREST NW   N/A     73  68  83 NE16G25     N/A
SCHOFIELD BRK*   N/A     82  72  69 MISG        N/A
SCHOFIELD S*   NOT AVBL
WAIANAE VLY*     N/A     81  70  69 S3G12       N/A
KUAOKALA*        N/A     75  70  83 VRB15G32    N/A
HONOULIUULI*   NOT AVBL
MOKUOLOE IS*   NOT AVBL
PALEHUA*         N/A     72  66  83 E7G17       N/A
WAIAWA PHB*    NOT AVBL
$$

HIZ012>013-220400-
MOLOKAI-

CITY           SKY/WX    TMP DP  RH WIND       PRES   REMARKS
MOLOKAI AIRPT  MOSUNNY   84  73  69 NE21G30   29.96S HX  90
KALAUPAPA      NOT AVBL
MAKAPULAPAI*     N/A     82  70  65 E15G22      N/A
MOLOKAI 1*       N/A     75  66  73 NE5G15      N/A
PUU ALII*        N/A     69  67  92 N2          N/A
$$

HIZ016-220400-
KAHOOLAWE-

CITY           SKY/WX    TMP DP  RH WIND       PRES   REMARKS
KAHOOLAWE*     NOT AVBL
HAKIOAWA*        N/A     79  70  74 MISG      30.38F
HONOKANAIA*      N/A     86  73  64 N3G30     29.89S HX  93
KANELOA*         N/A     79  72  78 E18G29    30.03S
KEALIALALO*    NOT AVBL
LUA MAKIKA*    NOT AVBL
$$

HIZ014>015-220400-
LANAI-

CITY           SKY/WX    TMP DP  RH WIND       PRES   REMARKS
LANAI CITY     FAIR      78  71  79 NE21      30.01S
LANAI 1*         N/A     79  70  73 NE18        N/A
$$

HIZ017>028-220400-
MAUI-

CITY           SKY/WX    TMP DP  RH WIND       PRES   REMARKS
KAHULUI        PTSUNNY   82  71  69 NE16      29.95F
KAPALUA-W MAUI LGT RAIN  77  73  88 NE15      29.97
HANA AIRPORT   CLOUDY    81  73  78 E5        30.00S
HANA*          NOT AVBL
HALEAKALA SUMM NOT AVBL
MAALAEA BAY*     N/A     84 N/A N/A N18G28      N/A
HALEAKALA*     NOT AVBL
KAUPO GAP*     NOT AVBL
KULA 1*          N/A     60  59  97 N3G9        N/A
$$

HIZ023>026-220400-
BIG ISLAND OF HAWAII COAST AND LOWER SLOPES-

CITY           SKY/WX    TMP DP  RH WIND       PRES   REMARKS
KAILUA KONA    CLOUDY    85  72  65 SW7       29.90F HX  91
HILO           HVY RAIN  77  75  94 N7        29.96S VSB 1
HONOKAA*         N/A     73 N/A N/A VRB1        N/A
KAWAIHAE MWT*    N/A     88 N/A N/A SW3         N/A
KAWAIHAE*        N/A     84 N/A N/A W3        29.92R
SOUTH POINT*     N/A     79 N/A N/A N17G23      N/A
UPOLU AIRPORT* NOT AVBL
KAMUELA*         N/A     72  68  88 NE14      30.07R
HAKALAU*         N/A     60  59  95 SE3G9       N/A
KALOKO-HONOKO*   N/A     88  73  62 SW6       29.91S HX  96
PALI 2*          N/A     79  64  61 SW9         N/A
KEALAKOMO*       N/A     82  75  78 E18G25      N/A
KAUPULEHU*       N/A     81  70  69 E3          N/A
KAPAPALA*        N/A     75  75 100 E3G15       N/A
LOWER KAHUKU*    N/A     70  68  94 NE2G10      N/A
PUHE CS*         N/A     84  64  51 SW2G8       N/A
PUHO CS*         N/A     85  76  74 NW6G15      N/A  HX  94
PTA KEAMUKU*     N/A     72  72 100 NE10G16     N/A
WAIKOLOA*        N/A     81  70  69 NE3         N/A
$$

HIZ027>028-220400-
BIG ISLAND OF HAWAII INTERIOR AND SUMMMITS-

CITY           SKY/WX    TMP DP  RH WIND       PRES   REMARKS
BRADSHAW FIELD MOSUNNY   66  53  62 SW3       30.31F
MK VISITOR CEN   N/A     55  46  71 S6          N/A
MAUNA KEA*       N/A     36  32  87 E8          N/A  WCI  29
MAUNA LOA*       N/A     46  43  87 MISG        N/A
MAUNA LOA 1*   NOT AVBL
PTA KIPUKA*      N/A     64  57  77 W3          N/A
PTA RANGE 17*    N/A     59  50  72 NW5G10      N/A
PTA WEST*        N/A     63  55  77 SW2G12      N/A
NENE CABIN*      N/A     57  57 100 NE6G16      N/A
AHUMOA*          N/A     67  60  78 NW3G10      N/A
PTA PORTABLE*  NOT AVBL
PUU MALI*        N/A    N/A N/A N/A N7          N/A
$$

HIC003-220400-
NORTHWEST ISLANDS-

CITY           SKY/WX    TMP DP  RH WIND       PRES   REMARKS
MIDWAY ISLAND  MOSUNNY   84  75  74 E14       30.15F HX  92
MIDWAY NOS*      N/A     81 N/A N/A MISG      30.13F
FRENCH FRIGATE NOT AVBL
$$

PHZ110>124-180-220400-
BUOY REPORTS

STATION/POSITION TIME  TEMP    WIND        PRES    WAVE   SWELL
                       AIR SEA DIR/SP/G            HT/PER HT/DIR
                 (UTC) (F)     (DEG/KT/KT) (MB)    (FT/S) (FT/D)
BUOY 51001       0330   79 81   80/  8/ 12 1016.3R
BUOY 51101       0250   79 81  100/ 10/ 12 1016.5R   5/ 7   5/100
BUOY 51100       NOT AVBL
BUOY 51002       0330   80 81   50/ 12/ 16 1012.4R
BUOY 51003       0250   82 83   40/  6/  8 1013.2F   4/ 7   3/ 90
BUOY 51004       0250      81   70/ 16/ 19 1012.1F   6/ 8   3/ 80
WAIMEA BAY#      0302      79                N/A     3/ 6
MOKAPU POINT#    0304      81                N/A     5/ 8   2/110
LANAI#           NOT AVBL
BARBERS PT 2#    NOT AVBL
PAUWELA#         0309      80                N/A     5/ 8
HILO#            0327      82                N/A     5/ 7   2/120
KANEOHE BAY#     NOT AVBL
KANEOHE BAY 2#   NOT AVBL
HANALEI#         0322      81                N/A     8/ 7
KAHULUI HARBOR   0312   79 82   30/  5/ 10 1014.6
HONOLULU HARBOR  0312   83 81  110/  6/ 12 1015.1
PEARL HARBOR#    0230      81                N/A     2/13   2/160
KILO NALU        NOT AVBL
HILO HARBOR      0312   78 80  290/  3/  4 1014.2
MOKUOLOE         0236   81 83   80/ 11/ 14 1015.0R
NAWILIWILI       0312   72 83  300/  4/  5 1015.3
WHOTS BUOY       NOT AVBL
BUOY 51028       NOT AVBL
$$

......................KEY........................................
  SKY/WX - SKY CONDITIONS/PRESENT WEATHER
  TMP    - TEMPERATURE IN FAHRENHEIT
  DWPT   - DEWPOINT IN FAHRENHEIT
  RH     - RELATIVE HUMIDITY IN PERCENT
  WIND   - DIRECTION AND SPEED /MPH FOR ISLANDS...KTS FOR BUOYS/
  PRES   - MEAN SEA LEVEL PRESSURE IN INCHES OF HG
  VSB    - VISIBILITY IN MILES
  HX     - HEAT INDEX
  WCI    - WIND CHILL INDEX
  VRB    - VARIABLE WIND DIRECTION
  N/A    - NOT AVAILABLE



USA.gov is the U.S. government's official web portal to all federal, state and local government web resources and services.